Wind_Speed
7 6 6 7 9 10 9 7 4 4 5 7 9 9 11 11 4 1 3 3 2 2 6 3 3 3 5 6 9 8 15 11 9 5 3 6 11 16 23 30 26 25 25 21 19 20 21 23 24 25 25 25 26 26 26 25 24 23 23 24 26 26 25 24 21 19 18 18 18 18 18 16 15 14 15 15 14 13 12 12 14 13 13 12 13 13 12 12 12 13 13 14 13 14 12 10 9
7 7 8 9 11 9 5 5 5 4 6 7 9 11 9 3 1 4 2 3 6 7 6 3 3 3 4 6 9 2 14 14 12 9 8 13 15 16 23 26 24 24 23 21 21 19 19 23 25 25 26 26 25 26 26 25 24 23 23 24 26 26 25 23 20 18 19 20 19 18 18 17 16 14 14 14 12 11 11 12 13 13 12 12 12 12 11 11 11 11 11 12 12 13 12 10 8
10 11 11 10 9 8 5 4 6 6 6 8 8 7 6 3 1 1 5 8 9 6 2 3 4 4 5 4 4 3 10 12 13 11 9 15 13 14 23 24 24 23 22 21 21 20 20 23 25 25 26 26 25 26 26 25 24 23 23 24 25 26 25 22 18 17 19 21 19 18 17 17 16 14 13 13 12 12 12 13 13 12 11 11 12 11 11 10 10 10 9 10 10 11 10 10 8
11 12 12 9 6 6 5 5 6 7 7 8 6 1 3 3 8 8 9 9 6 3 2 5 2 2 4 1 4 7 10 8 11 10 7 12 14 16 23 26 25 23 21 20 20 20 20 24 26 25 26 26 26 26 25 25 24 24 23 24 25 26 24 20 17 18 20 20 19 18 18 18 16 14 13 12 12 14 14 14 13 12 11 11 11 10 10 9 9 9 8 8 8 9 9 9 8
11 12 14 11 5 4 4 5 6 7 7 8 5 4 5 7 11 6 6 6 3 4 5 5 2 4 2 7 6 4 6 6 10 11 8 14 19 20 25 27 24 22 21 20 21 19 19 25 26 25 26 25 26 25 25 25 24 24 24 25 25 24 22 19 18 19 20 19 18 17 18 18 15 14 13 13 14 16 14 14 14 12 11 11 10 9 9 9 8 8 7 8 7 7 7 7 8
12 13 13 10 6 5 4 6 6 8 10 11 8 3 7 8 10 6 2 1 1 4 6 5 7 4 8 9 8 7 5 5 8 10 12 17 20 21 26 26 22 23 22 21 20 17 19 26 25 25 26 25 26 25 25 25 25 24 24 24 23 22 20 19 20 19 19 18 18 17 18 18 16 15 14 14 16 16 14 14 14 12 11 10 9 9 9 8 7 7 6 6 5 5 5 6 8
12 10 7 8 6 5 5 7 7 8 9 11 10 4 9 7 8 2 3 2 2 3 6 6 8 2 8 7 8 9 10 8 7 10 16 20 21 22 23 22 22 23 23 21 20 17 21 26 25 25 26 25 25 25 25 25 25 24 23 23 21 20 19 20 20 18 18 19 18 17 17 17 16 15 15 15 16 15 14 14 13 11 10 10 10 9 8 7 6 6 5 4 4 4 5 6 9
14 8 3 6 5 5 7 7 8 9 7 8 6 8 7 3 4 2 3 2 1 1 4 5 7 5 6 11 8 7 12 12 11 14 21 23 21 22 21 20 22 25 23 21 20 19 22 25 25 26 25 24 24 24 24 25 25 24 22 21 20 20 20 21 18 17 19 20 18 17 16 15 15 15 16 16 16 15 14 13 11 11 10 11 10 8 7 6 6 4 3 4 4 5 6 8 11
13 8 5 6 6 6 7 7 9 10 9 5 2 9 5 1 2 2 4 5 4 4 6 5 5 3 8 15 11 6 11 12 14 18 21 22 21 21 20 20 21 24 23 21 22 21 22 25 25 25 25 24 23 23 24 25 24 23 22 21 20 21 22 21 18 18 20 19 18 17 16 15 14 15 17 16 15 16 14 13 11 10 11 11 10 8 7 6 5 3 3 4 5 6 7 9 12
8 7 5 5 6 7 7 9 7 10 11 3 7 7 4 3 3 4 5 8 6 6 7 5 5 9 14 12 8 5 9 11 14 18 18 19 20 19 20 22 21 22 22 21 22 21 21 24 24 25 24 23 23 23 24 24 24 22 21 21 21 22 22 20 19 19 20 19 18 18 16 15 14 15 16 15 15 16 14 14 12 11 10 11 9 7 6 5 4 3 3 5 6 7 8 10 13
5 6 5 5 6 7 7 8 7 11 9 5 6 6 5 3 4 5 5 8 7 6 4 3 5 13 16 9 6 5 9 12 16 19 17 19 19 19 21 22 21 21 22 21 21 20 20 22 23 24 23 22 23 23 24 25 24 22 21 21 23 23 22 20 19 19 19 19 19 18 17 15 14 15 15 15 16 15 14 14 13 11 10 10 8 7 6 5 5 4 5 5 7 8 10 11 12
6 6 6 6 6 6 8 8 9 9 5 6 2 6 5 2 3 5 5 7 7 6 6 5 3 14 14 7 5 6 10 12 16 20 21 21 19 20 21 20 20 21 23 22 21 21 20 20 21 23 22 22 22 22 24 25 23 22 23 23 24 22 19 19 18 19 20 19 19 18 17 16 15 15 15 15 16 15 14 13 12 11 10 10 8 6 6 6 5 5 6 6 7 8 10 11 11
6 7 6 7 6 7 9 9 9 7 1 4 4 7 3 3 2 3 6 8 7 6 6 3 10 15 10 7 6 6 10 13 17 20 21 19 18 20 20 21 20 20 22 23 22 22 21 20 19 20 21 21 21 22 23 24 23 23 24 24 22 20 18 18 18 19 20 20 19 18 17 16 16 16 15 15 15 15 14 13 12 11 11 10 8 6 6 6 6 6 7 6 7 8 9 10 10
7 6 6 6 6 8 9 9 8 7 2 8 8 5 1 2 3 3 6 10 9 4 2 8 16 15 10 7 6 6 9 15 19 19 17 16 18 19 19 22 21 20 21 22 22 23 22 21 19 19 19 19 20 22 23 23 24 24 23 22 20 18 17 18 19 20 20 20 18 17 17 17 17 16 15 14 15 16 15 13 12 10 10 9 7 6 6 6 6 6 7 6 7 7 8 9 10
7 5 6 6 7 8 8 8 8 8 2 10 5 4 0 2 3 3 7 9 7 5 5 8 11 8 8 7 6 8 11 18 19 18 17 15 16 17 19 21 21 21 21 20 22 22 21 20 19 19 18 18 19 20 21 22 22 22 22 20 18 17 18 19 19 20 19 19 18 17 17 16 16 15 13 13 14 16 15 13 12 10 9 9 7 6 6 6 5 5 6 6 6 6 6 8 10
6 6 5 6 7 7 7 8 8 8 3 9 2 5 2 3 4 3 4 5 8 5 3 5 11 6 8 6 9 15 16 19 20 18 18 16 14 16 19 20 19 21 21 20 21 20 20 20 19 19 17 17 18 19 19 19 19 20 19 18 17 17 18 18 18 18 18 18 17 17 16 15 15 13 12 12 13 15 15 13 11 10 9 8 7 6 6 5 5 5 5 5 5 5 6 6 10
6 6 6 6 7 8 8 5 4 3 7 8 4 7 3 2 3 2 2 6 9 3 3 6 13 7 6 8 15 21 20 20 20 19 17 16 16 17 18 18 19 20 21 21 21 21 21 20 19 18 18 17 18 19 18 18 18 17 17 16 16 17 17 17 17 17 17 16 16 16 15 14 13 13 13 12 12 13 14 13 11 10 10 9 8 7 7 6 5 5 5 5 5 5 5 6 8
6 5 6 7 7 8 4 6 5 5 8 7 6 6 3 2 4 3 2 7 9 4 4 9 13 9 13 15 19 21 20 20 21 19 17 16 16 17 17 17 18 18 20 22 22 22 23 22 19 19 19 18 17 18 18 17 18 17 16 16 16 17 16 16 16 15 15 15 15 15 14 12 12 12 13 14 13 13 13 13 12 10 10 9 9 9 8 7 6 5 5 5 5 4 5 5 6
7 6 6 8 8 5 5 7 5 7 7 4 4 2 2 3 4 4 5 8 7 7 6 13 14 13 16 14 17 18 19 20 20 19 17 17 15 16 16 16 18 18 19 21 21 22 25 25 23 23 23 21 20 20 18 18 19 17 17 16 16 16 16 15 15 15 14 14 15 14 14 14 13 13 13 14 14 13 13 12 11 10 10 10 10 10 9 9 7 5 4 4 4 4 4 4 3
7 7 6 9 8 5 7 5 5 6 5 4 4 3 2 5 5 2 6 9 6 8 7 12 15 14 14 11 14 17 18 20 20 18 16 17 16 17 16 16 17 17 16 17 21 23 24 25 26 28 28 28 27 24 20 20 20 18 17 16 15 15 15 15 15 14 14 14 15 14 15 16 14 13 12 13 14 14 14 12 11 10 9 8 9 10 10 9 8 7 6 4 4 4 3 3 2
7 7 9 11 6 6 5 4 6 6 6 5 5 4 4 7 6 5 8 8 7 8 5 12 17 14 14 12 13 15 16 17 19 17 15 16 16 16 16 16 16 17 18 18 22 24 22 22 26 28 26 28 28 26 24 23 21 18 16 15 15 15 15 15 14 14 15 15 14 14 17 16 14 14 12 13 14 15 14 13 12 10 9 8 8 10 10 9 9 8 7 7 6 4 4 4 5
6 8 12 14 10 8 5 4 4 5 7 7 8 8 7 7 5 7 10 9 6 6 12 20 19 13 13 11 12 13 13 14 15 16 15 15 15 15 15 16 16 18 20 20 22 21 21 23 27 28 25 25 27 27 27 25 23 20 19 17 14 14 14 15 15 16 16 15 15 15 17 17 15 14 13 12 13 14 14 12 11 9 8 8 9 10 9 8 9 8 7 7 6 5 5 6 5
8 8 11 14 11 9 4 3 3 3 6 8 8 9 7 7 6 9 9 10 4 16 23 22 18 16 16 13 11 11 12 13 14 15 16 14 14 15 15 15 16 19 20 20 21 18 22 23 25 29 25 25 27 27 27 26 24 23 22 20 18 17 15 14 15 15 15 15 16 15 16 17 16 14 13 12 11 12 13 11 10 9 9 9 10 11 9 7 7 9 8 6 6 6 6 6 6
9 9 10 12 9 9 8 5 3 4 7 8 8 8 8 8 7 10 7 9 2 18 22 19 17 16 18 16 13 13 13 13 13 14 15 14 15 16 15 16 17 19 20 22 20 18 22 23 25 29 26 26 29 26 26 27 24 21 20 20 21 21 15 11 12 12 13 15 16 15 15 15 16 15 15 13 11 11 12 11 10 10 10 10 9 10 10 8 7 9 9 7 6 6 6 6 6
11 11 11 11 8 7 8 7 6 7 8 7 9 8 10 10 9 12 7 9 3 19 20 15 14 14 16 15 15 14 13 13 12 13 14 14 15 16 15 16 17 19 21 22 20 18 22 24 24 26 25 27 29 25 26 27 22 18 20 21 21 19 14 10 11 12 14 16 16 16 16 15 17 16 15 15 13 12 13 12 12 12 11 11 10 10 10 9 9 8 7 7 7 6 6 6 6
9 12 12 11 11 9 8 8 9 9 7 7 10 10 12 11 10 11 9 13 4 21 19 13 13 12 13 12 13 13 12 12 10 11 12 12 14 15 15 15 17 19 21 20 20 20 21 25 24 21 23 27 27 24 25 25 20 19 22 19 18 18 15 12 12 14 16 17 16 17 16 14 15 14 13 15 13 12 14 13 13 13 11 11 10 9 10 9 10 8 7 7 6 5 5 5 6
4 9 11 11 12 11 10 10 9 9 8 9 11 11 11 11 10 7 10 17 7 23 19 14 12 10 10 9 9 9 9 9 8 9 9 10 13 14 14 15 16 18 21 19 18 20 19 22 23 20 22 25 25 25 25 23 19 20 22 17 17 19 17 14 14 14 15 16 16 16 14 13 13 12 13 15 13 12 13 12 13 12 11 11 9 8 10 9 9 8 7 7 7 5 4 4 6
7 7 8 11 12 11 12 11 9 8 8 9 11 12 11 11 10 9 14 15 10 19 18 17 11 8 9 8 8 7 7 8 9 9 8 10 12 13 14 15 17 18 20 18 17 19 18 17 19 19 23 26 25 25 24 21 18 20 21 18 17 18 17 15 14 14 14 14 15 14 12 14 13 12 13 13 11 10 11 11 12 10 9 10 9 8 10 9 7 7 7 6 6 5 4 4 5
10 8 7 11 12 12 14 13 12 9 8 10 10 10 11 12 11 12 17 12 9 11 13 15 11 8 8 7 5 5 6 8 10 11 12 13 12 14 14 14 19 18 16 18 19 21 21 20 20 18 21 24 24 25 23 19 17 19 21 19 17 17 16 15 13 13 14 14 14 14 12 14 13 13 14 12 10 9 10 12 10 9 9 10 9 8 8 8 7 7 6 5 4 4 3 3 2
10 9 7 10 9 11 15 14 13 12 10 9 6 6 8 11 14 14 19 13 8 9 9 11 9 6 5 7 6 8 9 9 11 13 15 15 14 14 14 15 19 17 15 17 21 24 23 22 21 19 20 21 22 24 22 19 18 19 21 20 18 17 16 16 14 13 14 15 14 14 13 13 13 13 13 12 10 9 10 11 9 8 9 9 9 9 8 7 7 7 6 5 5 4 4 4 2
7 9 8 7 7 10 14 14 13 11 10 8 5 5 7 12 15 17 19 16 10 8 8 11 9 4 1 3 4 7 8 10 13 14 14 14 14 13 12 16 17 18 20 19 21 24 24 23 21 21 21 20 22 25 24 20 19 19 19 19 18 17 16 16 15 14 14 14 13 13 12 13 13 12 11 11 10 11 13 11 9 9 8 8 8 8 8 7 6 6 6 7 7 6 6 5 2
7 7 7 7 7 9 9 13 13 10 8 8 7 6 8 13 15 17 19 14 12 8 12 16 11 5 2 2 2 5 7 9 12 13 14 16 15 13 14 18 18 21 25 22 23 25 24 23 21 21 22 22 24 26 24 21 18 17 16 16 17 15 15 14 13 13 11 11 13 13 12 12 12 10 10 11 11 14 16 12 11 10 8 7 7 8 7 6 6 6 5 6 7 6 6 5 4
7 7 7 8 9 7 5 12 13 12 8 8 9 9 8 12 15 15 18 14 12 9 14 19 15 11 7 4 2 3 8 8 8 11 15 17 15 15 16 19 18 21 25 24 24 25 23 22 21 20 21 23 25 26 24 20 17 17 15 14 15 14 14 12 11 12 9 10 12 11 11 12 10 9 11 13 13 15 15 12 10 9 8 7 7 8 7 5 6 5 4 5 4 4 3 5 8
7 7 7 8 10 8 5 11 13 12 7 7 10 9 10 15 15 6 12 13 11 9 13 16 14 13 12 10 9 8 7 8 7 11 15 15 16 15 17 20 19 19 24 26 26 25 22 22 21 20 21 22 23 24 23 19 17 18 17 15 15 14 14 12 11 11 9 9 11 10 8 10 11 11 12 14 15 13 11 11 10 8 9 8 7 7 6 5 6 5 5 5 2 2 5 5 8
8 8 6 7 10 9 4 9 10 8 7 7 10 9 11 16 14 3 10 10 9 7 12 13 13 13 12 11 10 9 8 8 6 9 13 14 14 14 16 21 21 19 22 26 26 25 22 22 22 22 22 21 21 22 23 20 19 19 19 17 16 14 13 13 12 12 12 10 11 11 9 11 12 12 12 13 14 10 7 11 12 9 8 8 7 7 6 5 6 6 5 5 3 4 6 7 10
12 10 8 8 8 8 8 6 8 5 5 7 9 9 10 13 13 8 7 9 8 6 12 12 10 11 10 8 7 5 6 5 5 9 12 13 15 17 18 21 23 20 20 24 25 25 24 23 23 23 23 21 21 23 24 22 19 19 19 17 14 13 12 12 11 12 12 11 10 10 10 13 12 10 10 12 12 8 7 10 11 9 8 8 7 6 6 5 6 6 5 5 5 5 7 8 11
14 10 6 8 9 9 10 7 12 7 3 5 8 9 11 11 13 12 6 7 11 10 12 11 9 8 8 7 6 4 4 1 4 10 10 12 16 17 17 20 23 21 19 21 24 25 24 24 24 24 24 22 23 23 23 22 19 18 17 15 13 12 11 10 10 11 11 11 11 10 11 12 11 9 11 13 11 9 8 9 10 9 9 7 7 6 6 6 6 6 5 5 6 6 8 9 11
12 11 7 8 9 7 8 7 10 11 5 4 8 10 11 12 13 13 12 11 10 11 14 13 11 9 8 8 6 3 3 3 6 10 10 14 14 13 13 18 23 22 20 21 22 23 24 25 25 23 23 22 22 22 22 20 17 16 16 14 14 13 10 8 8 10 11 13 13 12 12 11 10 10 12 14 11 8 7 9 10 10 9 7 7 7 6 7 7 6 6 6 6 7 8 10 13
8 7 8 7 7 6 8 9 4 7 5 3 8 10 10 12 13 12 14 14 11 8 14 16 14 13 11 10 9 5 5 4 8 12 11 15 14 15 14 16 21 22 22 22 21 22 24 24 23 21 21 20 19 20 20 19 17 17 17 15 15 14 11 9 7 10 12 13 13 13 12 11 10 10 12 14 11 9 9 9 9 9 8 8 8 7 7 8 7 6 6 6 6 7 7 9 10
5 6 8 7 8 8 7 6 5 3 3 2 5 10 9 11 11 11 13 12 13 15 10 16 17 16 15 14 12 9 10 11 13 13 11 13 13 15 17 17 20 21 21 21 21 20 21 20 18 18 18 18 17 17 18 19 19 17 16 15 16 15 13 12 10 11 11 11 12 13 12 9 8 8 12 13 10 8 9 8 9 9 8 8 8 8 8 8 8 7 6 5 7 8 8 8 7
7 10 10 8 10 11 9 7 5 4 4 2 5 9 8 10 12 10 10 10 12 17 14 11 13 15 15 15 14 13 13 13 16 15 12 11 12 14 18 18 18 18 19 21 21 18 16 16 17 18 18 18 16 16 17 19 18 17 17 16 16 15 13 12 12 12 12 12 12 12 10 7 6 8 11 11 8 8 8 7 8 9 9 8 8 8 8 8 7 7 6 6 6 7 8 9 8
8 11 13 13 13 13 13 12 8 6 5 5 8 8 6 9 13 12 10 10 12 14 15 13 11 14 12 13 15 15 15 16 15 13 12 12 13 14 18 20 18 17 16 13 13 14 17 17 17 17 17 16 15 16 18 18 17 18 21 20 18 17 14 12 12 13 13 12 11 11 9 7 7 8 9 9 8 8 8 7 8 9 9 9 8 7 8 8 7 7 7 6 5 6 8 10 10
7 10 12 15 15 14 14 13 11 7 5 5 8 8 6 7 11 12 13 14 15 14 14 13 10 12 11 12 18 17 16 15 12 13 14 13 14 15 13 9 6 6 8 14 19 22 21 16 17 17 15 15 16 17 19 19 18 19 20 20 20 20 17 14 12 13 14 12 11 11 9 8 8 8 8 8 7 8 8 8 7 8 7 8 8 7 7 8 7 7 7 6 5 6 7 9 10
7 9 11 14 15 16 16 12 9 8 7 8 11 10 7 6 7 10 12 12 14 14 13 14 12 12 12 9 17 19 17 15 14 13 13 12 11 6 9 18 24 23 17 17 21 23 19 14 16 16 15 14 14 17 20 18 18 19 19 18 18 18 17 15 13 13 14 12 12 12 10 9 10 9 8 7 7 7 8 7 7 6 6 7 7 6 7 8 7 7 8 7 5 5 7 8 9
8 11 14 14 12 12 13 10 8 8 8 8 11 11 8 6 6 10 13 12 11 11 10 11 11 10 12 11 13 20 17 15 15 13 12 11 8 16 24 25 23 22 20 16 16 19 19 18 17 15 16 15 12 16 20 19 18 20 22 20 18 17 15 15 15 14 14 13 12 12 12 11 10 10 8 8 8 7 7 7 7 6 6 6 5 5 7 7 7 8 9 8 6 6 6 7 8
9 12 14 11 5 6 8 8 8 8 9 9 10 11 8 6 6 7 9 9 7 8 8 5 4 3 5 9 5 17 17 12 14 14 10 9 17 23 24 23 18 15 15 13 13 20 26 26 21 17 19 19 17 17 18 19 19 20 23 24 22 19 16 16 16 15 14 14 13 11 11 12 11 10 8 8 8 7 7 6 7 6 6 6 4 4 6 7 8 8 8 8 8 7 6 7 8
8 10 10 7 3 5 7 7 7 7 8 10 12 13 10 7 6 6 4 1 6 3 3 7 10 11 10 12 8 9 15 8 8 9 8 14 21 25 26 26 24 22 21 20 19 24 31 31 27 24 22 21 18 18 19 20 21 21 23 24 24 23 19 19 19 17 16 14 12 10 9 11 12 10 9 9 8 7 7 6 6 6 6 5 5 5 6 7 8 8 8 8 8 9 7 7 8
7 8 5 4 5 7 7 7 7 7 7 9 12 14 13 9 5 3 2 5 9 7 6 8 9 10 10 11 12 6 12 7 7 8 11 16 16 20 22 21 20 19 21 26 27 31 36 37 36 34 32 28 21 22 26 26 24 24 25 24 23 24 22 22 21 19 17 14 13 12 10 10 11 10 9 8 8 7 7 7 7 7 6 6 5 5 5 6 7 8 8 8 8 9 8 8 8
8 7 5 5 6 6 7 6 6 7 8 9 12 12 10 6 2 6 7 8 10 8 7 9 9 10 10 10 12 5 7 5 5 6 11 14 10 11 12 13 14 14 19 26 31 35 39 41 41 39 39 37 32 33 35 33 30 27 27 26 23 24 24 23 21 20 18 15 15 14 12 12 12 11 10 9 8 7 7 7 7 7 6 6 6 4 5 6 7 8 7 8 9 9 9 8 9
9 8 7 7 6 5 6 6 6 7 7 9 12 10 7 4 3 10 11 10 11 10 9 11 10 10 10 12 14 12 9 9 9 10 13 12 8 6 6 9 10 12 18 26 31 33 31 32 35 35 34 32 34 40 39 35 33 29 28 27 24 25 26 24 23 21 18 17 17 15 13 13 12 11 11 10 9 8 7 8 7 7 7 7 7 6 5 5 6 6 7 8 8 8 8 7 8
9 8 8 8 7 6 5 5 6 6 4 6 9 7 5 4 1 7 9 10 10 10 10 10 10 11 10 12 14 12 12 12 12 11 10 9 7 7 5 6 8 6 14 24 30 28 21 21 26 27 26 21 22 32 36 33 33 30 27 27 27 28 28 26 25 23 20 18 17 15 14 13 12 11 11 10 9 8 8 8 7 7 7 7 7 7 6 6 6 6 6 8 8 7 8 7 7
8 8 9 8 7 6 4 4 5 3 3 4 5 3 2 3 4 6 7 8 9 8 10 10 10 11 10 10 10 8 9 10 9 8 6 3 4 7 6 7 8 10 18 20 24 22 15 16 19 20 22 21 19 24 29 30 30 29 27 27 29 30 29 27 25 22 20 19 18 16 14 13 12 12 11 10 10 9 8 8 7 7 7 7 7 7 7 6 7 6 6 8 8 7 8 8 7
5 8 9 8 9 8 5 5 5 3 4 4 5 3 4 6 5 7 7 7 8 8 9 10 11 12 11 10 9 7 7 8 8 6 3 1 3 3 6 10 15 19 21 17 17 16 12 14 17 16 18 21 21 22 25 27 28 28 27 27 30 31 28 27 25 22 20 18 18 17 14 13 13 12 11 11 11 9 8 7 7 7 6 7 7 7 7 7 7 7 6 7 7 7 8 8 8
5 5 8 8 9 9 5 4 5 5 6 5 6 7 4 4 2 6 7 6 8 9 9 10 10 11 11 10 9 8 8 7 7 6 4 1 4 6 4 5 8 16 17 12 8 8 8 10 15 17 17 18 20 22 23 25 26 27 26 27 30 30 27 25 23 21 20 18 17 16 14 13 13 13 12 12 11 9 8 7 7 7 6 6 7 7 7 7 7 7 7 7 8 8 8 8 9
11 6 7 6 6 7 6 5 5 6 6 5 8 9 1 3 1 5 5 5 8 9 9 9 11 11 10 9 9 9 9 7 7 7 6 3 4 7 8 12 9 11 13 9 6 5 3 4 10 14 15 15 18 20 21 23 25 26 24 26 31 30 25 23 22 21 22 19 17 16 15 14 14 13 13 13 12 10 8 7 7 6 6 6 6 6 7 8 8 8 8 8 8 8 7 7 8
12 10 8 6 4 4 4 3 4 6 6 5 7 6 2 4 4 4 6 4 6 6 4 6 9 10 9 9 8 7 7 7 7 6 6 3 2 1 3 6 5 4 9 12 14 13 10 10 10 12 15 16 18 19 21 23 25 24 22 26 31 29 24 22 22 22 22 20 17 17 16 15 14 14 13 12 12 10 9 8 7 6 6 6 6 6 7 8 8 8 8 8 8 8 8 7 7
10 9 8 7 5 4 3 2 2 4 4 4 5 3 2 1 3 4 7 5 4 4 4 4 6 9 10 8 7 5 5 6 6 4 3 2 1 1 0 0 2 3 7 7 11 12 14 15 14 15 17 18 19 20 21 22 23 22 23 27 29 26 24 23 23 22 22 20 18 17 17 16 14 13 13 12 11 11 9 8 7 6 7 6 6 7 6 7 8 7 8 8 7 9 10 8 8
9 8 8 9 7 5 5 3 1 3 4 4 3 0 2 1 3 4 7 6 5 4 4 6 7 9 10 8 7 6 6 6 6 4 4 4 3 4 4 1 5 4 3 4 3 2 3 7 9 11 16 18 17 18 21 21 21 22 25 28 27 24 23 24 24 22 22 21 19 17 17 17 14 12 13 12 11 11 10 9 8 7 7 7 7 7 6 7 7 6 7 6 6 7 10 10 9
Wind_Direction
249 247 241 246 245 258 259 229 240 218 224 257 250 251 248 252 294 92 144 78 16 46 61 27 31 356 289 309 313 10 48 45 35 43 99 96 116 129 120 116 119 121 125 131 138 144 151 158 162 164 165 165 165 163 162 160 156 154 154 151 150 150 150 149 147 145 142 141 138 135 133 129 125 124 122 118 117 120 118 111 108 109 109 105 102 100 96 92 83 80 77 72 69 64 76 106 112
242 245 239 245 245 252 257 210 246 242 217 245 246 250 247 239 307 264 267 78 68 59 53 5 345 298 285 305 287 350 63 62 71 80 103 107 104 120 124 119 120 122 127 133 138 142 148 159 163 164 167 167 165 164 163 161 158 156 155 153 151 152 151 150 148 145 142 143 141 139 138 134 128 124 124 123 125 128 122 113 114 115 114 109 105 104 99 93 89 85 81 72 68 66 64 83 113
242 254 245 232 234 240 261 228 237 256 234 246 253 237 208 182 103 37 41 62 64 57 55 290 286 270 245 238 257 106 81 74 86 91 112 122 117 128 129 122 123 127 130 134 140 142 150 161 164 166 168 168 165 164 164 162 160 157 156 154 153 153 153 152 148 144 143 144 144 142 141 137 130 127 131 133 131 125 118 116 121 120 114 111 109 108 100 94 90 85 80 72 66 68 66 67 91
242 257 254 234 224 221 242 242 230 255 253 256 269 137 141 90 55 55 55 51 36 18 293 282 272 229 256 314 42 81 88 78 94 110 125 126 133 140 132 126 127 131 134 137 140 142 154 163 165 168 169 169 166 165 165 163 161 158 157 155 154 154 154 152 147 142 142 145 146 145 144 140 132 134 142 140 130 120 119 124 125 121 113 111 113 111 104 96 88 84 77 73 69 67 69 66 77
246 257 257 245 242 237 237 247 235 245 249 261 276 57 51 62 62 50 49 36 349 293 264 277 260 176 101 39 35 61 80 82 96 109 109 116 133 139 128 125 130 136 139 138 140 143 155 164 166 168 168 168 166 166 165 163 161 159 158 156 155 155 154 151 145 140 141 146 147 145 145 142 136 142 147 139 130 126 128 129 126 124 117 117 121 118 107 98 89 88 82 77 78 74 76 76 83
244 253 247 239 265 293 272 251 238 240 241 260 274 67 62 59 60 46 20 314 258 268 252 248 253 182 97 62 58 56 41 87 101 100 113 126 137 139 130 129 137 141 140 139 142 146 156 164 166 166 167 167 166 167 165 163 162 160 159 157 155 153 150 147 143 141 142 146 144 142 144 145 143 147 149 139 132 133 136 131 129 129 126 129 129 117 104 101 101 98 95 89 86 86 88 90 100
239 249 221 218 254 272 255 251 245 250 237 239 263 55 76 68 58 22 320 282 171 217 231 230 252 215 113 106 73 61 44 70 105 103 120 132 135 136 136 136 142 140 139 141 142 147 159 164 164 165 166 166 166 165 163 162 161 159 158 155 152 150 147 145 144 143 143 144 142 141 143 147 148 150 151 140 133 133 136 131 132 140 142 138 125 114 113 118 122 116 108 92 82 86 92 100 111
240 254 224 223 235 231 236 251 250 258 254 241 273 55 73 52 51 299 320 309 234 242 211 202 247 259 124 110 86 70 58 68 97 108 124 134 133 135 140 142 141 136 135 139 142 151 161 162 162 162 162 163 163 162 162 161 161 158 156 153 151 149 146 146 145 144 145 145 142 142 143 146 148 149 149 142 135 134 136 136 141 150 147 136 127 126 137 138 132 128 107 77 75 84 98 109 117
235 242 247 242 239 244 237 246 248 254 260 257 20 66 75 337 15 286 294 266 255 287 251 215 219 197 95 90 88 86 76 81 104 118 131 135 135 139 141 141 141 138 135 137 145 154 160 161 160 160 160 161 160 160 161 161 160 157 155 152 151 150 148 147 147 147 148 146 144 143 143 142 144 146 146 143 140 141 145 147 150 152 142 137 136 141 150 143 133 126 95 81 84 91 99 111 122
226 228 242 251 245 253 244 245 243 248 248 178 90 73 49 8 334 289 282 272 263 262 248 228 209 125 96 89 93 93 93 108 118 121 129 133 138 143 139 137 141 141 139 137 144 151 155 160 159 157 159 159 159 159 159 160 159 157 155 153 153 151 150 151 151 152 151 149 146 145 145 144 147 149 148 146 148 150 156 158 153 149 146 144 143 150 156 142 129 103 81 94 95 96 97 105 121
226 220 232 258 251 249 251 251 240 240 229 114 92 89 51 358 328 301 274 268 268 262 235 229 217 118 100 90 96 102 109 122 123 123 134 142 145 143 136 136 141 141 140 137 140 146 152 158 158 157 158 158 159 159 159 160 159 158 157 156 154 152 153 156 156 155 154 152 149 148 149 150 154 155 153 153 156 160 162 160 152 151 153 152 153 160 156 137 126 94 79 100 101 95 95 100 118
243 224 214 245 250 251 258 257 258 248 170 102 101 98 66 309 292 295 283 269 270 262 222 212 160 110 105 98 101 118 120 123 122 132 145 146 147 145 137 137 143 141 141 140 141 146 148 152 157 159 159 158 160 161 161 160 160 160 158 156 154 156 158 159 160 158 155 156 154 150 150 153 157 157 156 158 161 166 164 157 152 153 155 158 166 165 150 140 130 105 92 107 112 100 96 98 111
245 243 231 242 251 262 267 268 280 286 174 102 112 99 70 287 308 315 317 296 281 264 239 161 93 93 98 102 112 135 133 130 129 139 146 144 147 147 142 141 144 142 143 145 144 145 146 147 154 160 161 161 162 161 161 161 161 160 158 157 157 159 159 159 161 159 158 160 157 152 152 152 156 155 154 160 165 172 170 161 158 158 158 163 173 166 153 149 138 118 105 112 123 113 101 99 104
237 251 257 261 267 266 271 275 284 288 306 81 94 103 170 266 28 335 303 282 259 246 309 79 96 95 100 117 131 149 139 136 137 140 142 144 148 149 148 144 145 145 142 145 144 145 147 148 151 157 159 158 160 160 160 161 161 161 161 159 159 159 156 155 156 157 160 162 159 155 153 152 156 155 154 161 169 176 178 171 164 164 167 168 171 166 160 159 150 127 111 108 125 127 113 105 101
239 257 264 271 273 264 268 267 276 283 25 76 84 84 286 269 61 281 267 271 287 346 2 68 92 103 134 153 155 155 145 140 142 143 143 147 152 150 147 144 146 145 143 145 144 146 148 148 149 151 154 157 160 160 161 163 164 164 163 161 160 158 155 154 154 156 158 159 158 155 154 154 156 158 157 162 170 175 179 176 169 168 173 171 169 167 165 165 154 129 112 103 111 128 127 112 105
242 266 267 262 262 260 259 250 256 268 81 79 65 69 323 272 82 283 285 285 298 336 303 41 62 103 152 155 142 147 147 143 142 142 146 150 155 148 143 147 148 145 147 148 145 147 147 144 144 147 153 157 159 160 163 166 167 166 163 161 159 157 155 155 154 153 155 155 156 157 156 157 157 159 159 161 168 173 173 176 175 169 170 175 173 171 175 172 154 130 117 106 96 109 126 118 112
235 252 261 255 252 248 254 262 263 258 94 85 48 45 325 286 70 297 339 270 264 273 227 75 71 109 118 100 126 141 144 142 140 144 152 156 159 151 145 152 152 151 153 150 149 148 145 143 143 147 152 154 154 156 161 164 167 167 162 160 159 157 156 153 152 151 153 154 158 160 157 159 160 158 157 159 164 170 171 173 175 172 175 184 180 178 185 183 163 140 126 119 102 99 117 131 126
238 231 243 248 240 241 282 13 7 17 61 65 46 33 326 337 8 346 330 244 226 242 225 95 81 90 83 97 125 139 142 138 142 153 162 164 164 158 153 158 158 159 157 152 153 150 145 145 146 149 150 148 150 154 158 164 165 164 162 160 159 157 156 154 154 155 156 161 164 163 160 162 162 160 161 161 161 165 171 174 177 181 186 191 188 182 187 189 173 152 140 133 128 118 121 135 139
237 234 235 242 246 272 356 15 354 19 39 25 37 61 356 338 338 340 304 266 216 219 196 110 93 90 87 108 134 141 143 138 150 167 171 169 170 163 158 162 162 162 159 154 151 148 148 151 153 154 151 150 155 158 160 165 162 163 163 160 160 159 159 160 160 160 163 169 168 168 169 166 166 168 165 164 164 164 170 176 180 188 198 203 196 188 190 191 181 169 161 151 153 145 122 119 144
227 238 241 237 252 330 2 356 347 10 14 347 348 47 20 292 305 326 299 302 277 254 216 139 117 110 110 138 149 150 152 147 162 179 177 173 171 168 164 162 164 162 156 148 145 149 155 161 162 157 156 160 163 162 161 164 161 162 164 161 163 164 164 166 164 164 166 170 170 176 178 170 169 171 168 166 166 166 169 171 173 185 200 205 197 193 194 191 188 185 181 177 176 167 137 133 196
214 225 243 247 273 337 334 345 1 357 338 337 314 317 305 287 335 334 292 295 280 288 261 137 120 120 133 156 156 156 163 158 170 182 180 179 173 170 168 163 165 158 145 139 146 154 160 168 167 159 161 165 162 158 160 163 160 161 163 164 167 169 171 169 167 166 166 170 174 180 180 174 169 169 170 166 165 168 169 170 172 181 190 190 186 187 189 193 195 190 191 189 183 186 188 197 204
230 231 247 260 287 316 333 7 357 349 319 304 280 276 288 303 333 293 277 281 290 45 84 108 119 137 143 158 161 164 174 167 174 180 184 186 173 171 169 166 160 142 134 144 152 157 164 168 165 160 163 166 161 159 162 162 162 165 166 165 166 172 176 173 169 167 168 176 180 179 178 176 170 168 169 166 171 173 169 172 175 178 185 187 179 176 181 195 194 189 200 199 190 201 215 218 207
242 244 247 260 274 282 298 348 338 356 302 287 282 279 295 309 298 273 267 278 311 91 105 117 132 149 148 160 167 174 181 176 183 184 187 184 172 174 170 165 158 140 137 154 158 156 168 169 163 162 161 163 164 163 163 162 166 173 171 163 166 177 180 175 170 169 177 182 183 180 177 179 174 167 167 169 176 171 169 176 176 179 188 186 178 178 183 193 191 190 205 212 209 217 222 217 207
237 253 253 257 262 262 271 293 311 314 287 281 283 285 287 282 275 270 264 275 301 102 115 129 136 144 150 161 168 181 186 182 189 187 189 185 177 179 174 169 161 147 143 154 155 151 168 170 165 167 163 161 165 165 163 164 170 176 170 164 171 179 178 177 174 171 184 187 185 184 180 181 176 166 166 174 181 178 178 180 179 183 188 184 178 182 186 190 194 195 201 205 212 220 220 215 211
232 247 257 263 273 270 272 281 278 271 268 268 268 267 264 260 265 272 280 286 266 107 114 128 133 145 151 161 170 181 189 184 185 189 194 191 185 182 178 175 157 142 141 153 156 151 167 172 165 166 164 162 165 165 164 165 170 168 164 170 174 170 167 180 181 174 186 189 185 186 183 179 175 169 170 179 192 194 185 179 182 185 185 185 186 184 182 187 192 194 199 200 208 210 214 220 219
230 240 248 255 264 264 258 257 256 257 254 255 257 252 252 247 251 263 265 266 225 108 116 129 131 150 155 166 173 175 188 186 177 186 194 191 191 187 181 173 154 143 145 153 155 151 164 170 165 162 161 163 165 165 164 167 169 159 162 171 167 160 164 179 181 178 187 186 184 190 188 182 179 178 182 188 197 195 181 181 188 186 183 180 181 180 176 184 186 185 193 197 203 206 216 218 216
249 248 253 257 262 263 258 252 248 254 256 253 255 257 256 247 241 243 243 247 177 110 122 138 137 159 164 173 176 174 189 188 173 181 194 195 196 191 182 168 150 146 148 150 149 149 157 164 163 161 160 164 166 165 165 169 168 159 162 166 160 161 166 175 179 181 187 183 184 191 190 190 187 186 194 194 196 186 176 189 195 183 175 171 174 181 178 178 179 180 191 198 201 204 226 217 224
266 262 270 268 267 267 263 259 253 251 257 255 255 259 257 249 242 239 247 241 155 124 135 140 146 162 167 178 176 176 193 190 182 190 200 201 200 190 184 170 149 147 150 145 138 141 149 161 166 165 166 169 168 166 167 170 168 160 159 163 165 163 163 173 180 183 186 180 182 188 190 194 189 187 195 195 195 182 179 203 199 179 171 170 177 189 181 171 179 190 192 199 197 198 218 215 230
259 263 274 265 262 258 250 247 244 237 243 246 244 251 249 242 238 242 253 242 160 159 155 142 150 155 165 172 166 190 208 193 187 199 202 203 206 191 186 170 149 147 149 144 145 151 158 168 172 169 169 169 167 165 166 168 167 161 158 163 167 163 164 173 179 184 187 182 181 184 189 190 187 192 197 198 199 188 197 212 194 177 179 177 182 187 181 175 187 192 183 192 192 189 208 214 206
253 252 256 263 263 250 238 229 226 226 235 232 229 253 246 237 226 228 252 243 177 185 171 139 136 141 168 164 173 204 204 196 195 202 200 200 206 198 185 162 151 153 150 151 162 166 165 168 171 171 171 167 163 162 159 160 165 162 159 164 166 164 166 170 180 190 188 186 185 185 187 187 191 200 202 205 200 192 211 210 184 180 183 180 184 180 182 186 189 186 180 191 192 197 207 209 153
250 246 239 247 258 256 238 213 202 214 224 203 189 254 260 259 232 212 240 239 192 182 141 109 98 82 317 170 198 220 209 206 201 197 198 202 204 200 178 154 157 161 155 164 173 167 166 169 169 171 172 166 163 160 155 157 165 165 164 164 160 161 166 168 181 191 187 188 188 188 190 190 198 202 197 196 194 201 213 202 185 192 184 180 189 182 185 193 191 183 184 193 189 202 208 197 145
232 240 237 226 237 263 237 181 179 209 214 185 194 254 257 263 248 213 223 219 187 174 118 110 112 122 250 292 314 294 265 225 199 192 202 208 203 193 172 156 163 164 162 175 177 169 169 170 168 171 172 167 166 163 158 157 163 166 166 162 154 156 163 164 177 186 186 191 185 184 186 192 208 212 196 184 187 207 210 196 187 191 179 177 192 189 185 187 188 180 184 192 183 197 206 181 144
214 223 243 232 225 250 207 156 177 208 196 173 204 252 261 257 260 226 206 190 185 179 125 125 136 152 188 210 183 273 278 249 203 200 208 212 205 189 169 162 167 163 168 179 175 171 174 170 167 170 171 166 165 165 160 157 159 158 157 159 156 156 157 157 172 183 188 195 187 185 186 190 205 212 204 193 191 205 208 196 188 185 181 187 199 193 186 184 182 177 171 170 177 193 172 138 128
207 211 240 252 243 247 198 161 185 203 190 196 208 232 265 270 283 249 171 168 202 193 131 132 148 162 182 185 175 186 235 245 219 215 215 214 207 185 164 167 172 158 164 177 174 173 175 172 169 168 170 164 160 161 157 152 149 148 151 156 158 155 151 152 167 182 196 201 190 189 191 193 200 199 199 199 197 204 206 193 185 186 191 197 204 193 188 186 171 166 160 153 162 147 122 117 116
208 203 214 251 260 265 230 152 162 175 174 221 232 228 253 268 281 261 148 161 232 217 138 148 166 172 182 179 172 175 199 221 227 229 220 213 209 189 168 172 178 164 161 173 175 174 175 175 172 167 166 161 157 157 153 148 140 139 145 151 155 154 153 158 166 181 201 208 194 190 192 200 209 201 198 207 206 205 202 189 184 189 194 195 201 193 184 179 158 151 149 144 125 97 115 120 111
230 220 213 234 250 254 246 155 133 153 180 222 246 244 251 267 271 254 172 158 221 219 149 157 174 174 182 176 162 168 197 211 233 243 228 208 203 197 182 172 174 174 170 172 174 176 177 175 171 166 164 161 156 153 152 149 139 133 138 144 149 150 155 164 171 181 198 211 203 195 195 203 213 205 206 221 212 198 195 188 182 188 195 194 197 191 182 175 152 147 146 139 127 109 116 119 117
262 276 263 243 240 236 235 171 141 152 208 246 257 261 259 268 273 269 251 194 203 193 157 161 171 174 186 177 164 178 187 160 273 264 256 231 209 195 182 165 165 175 178 176 176 180 179 173 170 167 165 163 155 151 154 154 145 134 135 140 141 143 155 166 174 184 193 202 201 202 203 204 213 213 222 231 215 198 195 182 180 191 192 190 194 184 171 165 153 148 144 138 138 131 123 122 127
279 299 290 255 248 248 252 225 168 150 148 256 268 269 262 262 269 274 276 258 226 185 160 162 174 185 190 166 141 123 96 41 296 265 256 247 218 182 177 169 168 176 179 181 181 181 180 174 168 165 164 162 153 151 154 153 150 141 135 139 139 145 166 170 178 190 190 192 196 206 210 203 206 210 228 237 212 188 187 179 185 192 183 182 187 170 156 157 155 152 144 141 146 143 133 132 132
272 279 264 262 266 262 256 253 203 138 151 229 262 270 267 259 258 258 263 266 263 223 170 162 176 189 186 158 133 125 137 161 246 244 234 240 216 177 182 183 176 178 179 186 188 179 176 173 166 161 158 155 150 152 154 151 151 145 137 142 145 151 165 166 186 198 191 196 200 204 208 208 210 211 231 236 208 183 185 186 190 183 173 183 181 160 160 163 156 156 153 151 151 142 135 139 138
243 252 247 249 259 263 255 232 185 187 261 283 277 279 274 267 261 249 249 252 267 270 217 171 179 189 184 165 150 161 174 184 212 220 215 226 217 183 182 189 186 182 178 185 188 177 171 166 156 152 149 146 149 153 150 149 149 142 140 146 148 151 157 164 188 198 194 203 202 196 199 209 215 214 225 227 210 191 189 195 195 177 172 187 178 162 168 168 159 161 159 157 155 144 135 135 137
228 238 246 250 250 255 262 254 226 238 287 305 266 276 271 265 265 254 252 239 243 266 260 211 199 210 195 164 159 173 179 191 201 200 195 207 216 196 186 189 188 182 181 184 183 170 153 142 136 140 144 144 149 150 144 145 144 139 139 142 144 149 152 164 187 199 201 201 195 193 194 196 205 213 219 214 203 192 187 197 196 178 177 181 172 168 172 170 165 164 159 162 160 148 141 134 129
237 228 233 250 260 264 270 283 281 244 225 203 216 249 259 248 251 247 248 244 235 245 254 244 225 228 214 164 163 180 185 194 194 189 190 196 208 205 193 190 187 183 179 166 154 137 124 131 139 136 139 141 142 149 152 152 151 150 150 149 155 159 157 169 188 197 202 198 190 190 184 178 197 210 208 198 190 185 182 194 192 179 180 175 168 172 173 171 169 169 166 164 162 149 144 141 136
245 230 223 234 252 266 271 282 288 267 256 252 232 247 267 249 248 245 235 234 236 235 238 242 238 241 234 177 167 180 185 188 187 189 193 191 201 208 201 183 142 116 103 80 83 100 107 128 144 130 130 146 151 159 165 164 164 165 162 161 168 168 163 171 185 193 196 192 184 180 170 172 189 195 192 184 180 176 176 188 188 176 176 172 170 174 175 176 173 172 168 161 159 153 145 143 145
238 242 235 228 231 242 248 254 268 274 282 280 264 263 274 269 266 272 266 245 232 231 225 224 227 241 252 209 172 178 184 179 180 189 191 193 194 169 80 66 61 63 76 85 94 107 111 127 141 130 129 146 159 165 169 172 175 172 163 161 170 172 168 171 177 187 189 182 179 171 162 173 184 184 183 175 169 169 172 178 178 173 171 168 171 178 175 175 172 165 162 159 152 150 150 146 145
238 242 246 244 240 247 254 254 256 262 264 264 260 256 259 263 262 274 280 267 243 241 241 232 221 223 251 249 183 172 179 176 175 181 190 189 135 88 78 80 80 78 92 111 121 129 134 134 137 139 141 151 168 172 172 178 181 174 165 164 169 168 170 174 177 183 181 175 175 167 165 176 176 173 173 167 164 164 165 170 170 170 169 165 175 185 170 168 175 168 161 159 142 130 146 147 142
238 242 254 267 281 287 281 268 257 254 249 250 253 253 258 262 255 257 265 272 273 257 260 295 346 8 316 297 206 168 174 176 175 182 183 141 105 102 105 108 115 118 124 149 158 145 139 136 139 146 151 163 179 186 183 181 181 175 171 172 170 165 168 176 180 182 176 169 168 168 177 177 165 163 164 157 157 159 161 166 167 164 160 158 165 174 166 171 182 175 164 164 153 136 138 144 141
235 242 256 268 251 254 263 259 262 262 250 247 249 251 258 259 259 262 244 331 24 0 313 19 17 12 12 350 356 147 166 167 170 175 127 96 100 111 117 119 128 140 153 169 172 157 148 148 157 160 158 162 179 196 194 187 187 183 183 182 174 168 172 177 180 180 173 166 165 171 178 166 157 160 159 154 155 157 159 163 160 155 149 143 140 152 164 170 175 173 168 169 161 146 141 147 141
224 239 246 246 221 223 237 237 236 246 252 254 249 244 245 249 265 291 165 97 54 37 9 19 13 4 13 357 3 101 158 156 158 156 103 92 95 101 109 122 136 148 161 164 167 170 168 166 171 173 167 159 172 200 198 189 189 188 189 188 177 174 178 178 179 175 169 167 169 173 169 157 155 155 154 155 158 157 157 153 147 144 142 138 135 147 160 159 162 168 169 168 163 151 149 155 150
213 227 215 231 239 218 224 230 221 235 246 250 257 253 245 246 341 33 58 66 48 39 13 5 3 5 13 356 357 57 139 131 127 117 94 96 100 100 109 129 147 161 165 164 169 177 178 174 175 178 174 164 170 190 193 186 186 187 186 185 182 181 181 180 177 169 165 168 171 171 168 162 160 155 156 162 163 160 154 145 138 138 140 137 134 142 149 148 154 163 168 170 167 157 156 161 157
207 219 208 217 237 229 227 229 232 247 245 248 261 259 246 244 50 50 57 57 41 34 19 6 4 7 18 19 16 34 55 40 35 57 86 104 108 119 134 138 147 161 165 171 179 183 183 178 175 178 181 176 174 179 180 179 183 184 182 183 186 184 179 178 174 166 165 168 170 172 167 164 165 162 163 166 165 160 149 142 138 134 134 135 137 137 140 142 144 154 167 170 170 165 164 169 163
204 221 228 222 227 238 236 228 238 253 273 293 283 266 247 242 101 64 62 61 46 32 21 9 7 9 21 40 38 37 41 34 24 39 77 109 129 147 150 108 108 168 190 186 188 190 187 182 177 174 178 183 174 168 169 175 181 183 181 182 186 182 176 174 170 167 168 167 167 168 165 165 170 168 168 167 161 156 147 139 133 130 131 136 140 137 138 141 137 143 157 160 167 172 167 171 169
203 211 227 230 232 239 240 255 268 279 303 304 282 285 51 122 115 63 47 57 57 41 28 15 10 13 20 37 43 38 45 54 43 27 40 86 157 160 148 116 130 206 223 205 195 196 186 176 178 175 174 179 174 167 169 173 178 183 182 181 183 180 174 169 167 169 171 165 164 167 167 169 169 167 169 164 157 151 143 135 128 129 134 140 145 142 141 142 141 146 152 152 156 164 167 167 165
212 210 221 227 233 238 240 254 263 264 265 260 246 247 103 125 116 68 52 53 55 43 31 22 16 21 25 30 29 21 36 57 56 40 35 347 261 204 169 164 171 197 220 218 199 188 170 168 178 178 175 179 182 179 175 173 175 180 183 182 180 177 171 167 166 169 167 160 162 166 167 168 166 166 166 160 158 151 142 139 135 135 139 143 144 143 141 141 143 147 145 142 144 152 162 160 157
235 222 226 224 225 234 240 243 239 231 242 251 244 236 172 154 152 74 57 40 47 38 25 26 31 29 27 34 27 14 29 48 48 38 38 18 297 304 296 259 206 190 209 230 213 179 163 164 173 176 177 183 190 187 180 177 176 178 181 183 180 176 173 169 165 165 162 156 158 163 164 163 161 162 162 159 157 152 148 145 139 140 143 143 146 147 146 142 143 147 144 142 144 147 152 150 156
237 241 240 232 223 225 221 225 239 239 239 245 246 245 240 43 52 92 71 42 53 43 16 19 42 44 33 34 29 15 18 27 34 26 10 347 310 328 321 296 269 199 196 211 204 210 221 175 172 178 180 187 195 192 187 184 180 177 180 181 179 176 173 169 164 161 159 155 156 159 160 159 158 160 159 157 156 155 158 151 140 147 151 146 147 145 144 145 145 147 147 147 146 146 148 152 157
229 242 242 239 242 242 228 221 238 244 247 256 255 253 28 21 0 75 89 78 72 69 44 26 43 53 49 42 38 32 29 29 38 26 354 319 258 288 281 287 294 214 207 192 179 189 201 197 193 186 185 192 195 195 196 191 182 178 179 179 179 177 173 167 161 158 156 155 157 157 155 156 155 156 157 158 161 162 162 153 144 155 158 151 149 145 147 150 146 151 156 153 154 158 159 159 157
211 228 230 229 231 235 235 226 239 255 260 262 264 273 71 4 322 71 103 116 114 115 112 80 56 58 58 50 43 53 67 63 61 51 10 7 60 67 200 192 134 205 243 206 173 180 190 196 200 189 184 188 192 197 203 196 184 179 178 177 176 174 171 164 157 156 156 155 157 155 155 155 150 151 158 163 166 164 162 158 155 161 160 155 155 154 154 152 151 162 163 156 171 175 161 153 153
211 211 220 230 230 225 228 223 227 260 257 256 259 257 96 2 346 73 100 103 99 98 92 78 59 53 56 51 42 47 59 59 58 66 84 89 59 21 358 317 167 184 315 357 40 51 180 206 216 198 187 186 190 200 206 198 185 179 178 176 174 171 168 161 154 156 157 155 155 154 151 152 151 153 160 165 167 164 162 163 161 160 157 157 161 160 159 160 159 161 155 159 187 171 141 137 144
Height
764 765 764 766 765 766 764 762 775 770 768 776 759 750 736 715 713 716 720 719 723 719 713 718 716 720 725 730 729 728 735 741 747 754 768 757 741 747 747 749 754 755 758 761 763 764 766 768 769 771 773 774 776 777 779 780 782 783 785 787 788 790 791 793 794 796 798 799 801 802 804 805 807 808 809 811 811 812 812 813 814 815 816 816 817 818 818 818 819 819 819 819 819 819 819 819 819
765 766 764 766 764 767 764 758 778 772 769 776 753 741 727 711 717 719 719 720 725 721 716 718 717 720 721 722 721 728 740 738 738 743 749 745 745 749 748 752 753 756 759 761 764 765 767 769 770 772 773 775 777 778 780 781 783 784 786 787 789 791 792 794 796 797 799 801 802 803 805 806 808 809 810 812 812 813 813 814 815 816 817 817 818 819 819 820 820 820 820 821 821 821 820 820 820
765 765 764 766 762 764 762 759 776 773 769 770 746 726 716 717 721 719 718 719 722 719 720 720 720 721 721 727 724 732 746 738 735 739 743 745 748 749 751 753 754 759 760 763 765 765 768 769 771 773 774 776 778 779 781 783 784 785 787 788 790 792 794 795 797 799 800 802 803 805 806 807 809 810 812 812 813 814 814 815 816 817 817 818 819 819 820 820 821 821 822 822 822 822 822 821 821
764 764 763 763 762 764 766 767 770 769 768 759 741 721 712 721 722 720 719 719 720 719 723 721 723 719 720 735 729 733 745 738 736 739 743 745 747 751 752 753 756 760 762 765 766 767 768 769 772 773 775 777 779 781 782 784 785 787 788 790 791 793 795 797 798 800 801 803 804 806 807 809 810 811 812 813 814 815 815 816 817 818 818 819 820 821 821 821 822 822 823 823 823 823 823 823 822
765 765 763 760 765 763 763 766 762 764 763 748 738 725 716 719 723 725 720 720 720 721 722 722 728 718 718 732 730 741 746 739 737 737 742 746 748 751 752 755 758 760 764 765 766 768 769 770 773 774 777 778 780 782 783 785 786 788 789 791 793 794 796 798 800 801 802 804 805 807 808 809 811 812 813 814 815 815 817 817 818 819 819 820 821 821 822 822 823 823 824 824 824 824 824 824 823
765 764 761 759 761 756 762 767 761 760 748 735 733 725 721 720 725 728 723 721 718 719 719 722 726 720 730 734 731 741 741 740 741 739 744 749 751 752 754 756 759 762 764 766 768 769 770 772 773 775 778 779 781 783 785 786 788 789 791 792 794 796 798 799 801 802 803 805 806 808 809 810 811 813 814 815 816 816 817 818 819 820 820 821 822 823 823 824 824 824 824 824 825 825 825 824 824
764 763 760 763 761 757 770 770 759 753 734 723 724 722 725 724 725 728 725 724 721 720 718 720 718 723 739 736 737 740 735 739 740 742 746 750 753 754 756 758 760 762 764 767 768 769 771 773 774 777 778 781 782 784 786 788 789 791 792 794 796 797 799 800 802 803 804 806 807 808 810 811 812 813 815 816 816 817 818 819 820 820 821 822 823 824 824 824 824 825 825 825 825 825 825 825 824
763 763 757 764 768 761 768 765 754 745 727 714 713 720 727 724 724 728 728 727 727 723 719 720 715 727 737 732 745 744 736 742 742 747 749 751 755 756 758 759 761 763 765 767 768 771 772 774 776 778 780 782 784 786 787 789 791 792 794 795 797 799 800 802 803 804 805 807 808 809 811 812 813 814 815 816 817 818 819 820 821 821 822 823 824 824 824 825 825 826 826 826 826 826 826 825 825
760 762 759 763 768 763 762 758 749 737 725 715 713 720 724 722 724 727 730 727 725 724 721 718 715 733 741 738 751 744 739 745 745 749 750 754 756 757 760 760 762 763 766 767 769 772 773 776 777 779 782 784 786 787 789 791 792 793 796 797 798 800 801 802 804 805 806 808 809 810 812 813 814 815 816 817 818 818 819 821 821 822 823 823 824 824 825 826 826 827 826 826 827 827 826 826 826
758 759 760 763 765 766 762 753 743 732 721 715 716 721 722 722 723 725 729 728 722 723 719 712 715 732 743 747 752 746 744 745 746 752 755 758 758 759 761 761 763 763 766 768 770 773 775 778 779 782 783 785 788 789 791 792 794 795 797 798 799 800 802 803 804 806 807 808 809 811 812 814 815 815 816 817 818 819 820 821 822 823 823 824 824 825 826 826 827 827 827 827 827 827 827 827 827
761 756 757 766 767 767 760 748 737 726 715 713 717 719 722 722 724 726 726 727 721 721 719 714 721 730 741 750 751 746 744 746 749 754 757 758 759 761 761 763 765 765 767 768 772 775 777 780 781 784 785 787 789 790 792 793 795 796 798 799 800 802 803 804 805 807 808 809 810 811 813 814 815 815 817 817 818 819 820 822 822 823 824 825 825 826 826 827 828 828 828 828 828 828 828 828 828
764 758 755 768 767 760 751 742 732 719 713 718 722 719 721 722 726 729 727 727 721 722 719 717 721 724 742 753 751 747 746 750 752 754 756 757 758 761 762 764 766 766 768 770 774 776 779 782 784 786 787 789 790 792 793 794 796 797 799 800 801 803 804 805 806 807 808 809 810 812 813 814 815 816 817 818 819 820 821 822 823 824 824 825 826 826 827 828 829 829 829 829 829 829 829 829 829
762 757 757 764 757 751 745 738 729 721 719 720 724 721 720 723 727 728 728 728 723 726 720 711 715 724 746 755 750 749 749 753 754 755 756 757 759 761 763 765 767 769 769 772 775 777 781 783 785 788 789 791 792 794 795 796 798 799 801 801 803 804 805 806 807 808 809 810 811 812 814 815 816 816 817 818 819 820 821 822 823 824 825 826 826 827 828 828 829 829 829 829 830 830 830 830 830
756 752 755 759 750 747 743 739 731 728 727 721 723 721 721 724 725 726 729 731 725 722 714 705 712 730 749 755 755 752 749 753 754 757 757 759 761 762 764 765 768 770 772 774 776 779 782 784 787 790 791 794 795 796 798 799 800 801 802 803 804 805 806 808 808 809 810 811 812 813 814 815 816 817 818 819 820 821 822 823 823 825 825 826 827 828 829 829 830 830 830 830 830 831 831 831 831
750 747 751 759 755 749 742 739 734 732 731 726 724 722 723 721 720 726 727 730 724 710 708 708 712 731 746 751 756 751 748 753 754 758 758 760 762 763 765 766 769 771 774 776 778 781 783 787 789 791 794 795 797 799 800 801 802 803 804 805 806 807 808 809 810 811 812 813 813 814 815 816 817 818 818 819 820 821 822 823 824 825 826 827 828 828 829 830 831 831 831 831 831 832 832 832 833
745 746 754 761 758 753 742 733 732 734 733 729 723 721 728 722 717 727 721 722 724 711 712 718 717 729 739 741 746 745 747 752 755 758 759 761 763 764 766 767 770 772 775 777 780 783 785 789 791 794 796 797 799 801 802 803 805 805 806 807 807 809 810 811 812 813 814 814 815 815 816 817 818 819 819 820 820 821 822 823 824 826 827 827 828 829 830 831 831 831 831 832 832 832 833 834 834
742 750 761 763 757 752 738 731 732 732 730 728 725 724 733 728 719 720 715 717 723 719 718 723 722 728 735 736 741 744 748 752 755 760 761 762 763 764 767 768 770 772 775 778 781 784 787 790 792 795 797 800 801 803 805 806 807 808 808 809 809 811 811 812 813 814 815 816 816 817 817 818 819 819 820 820 820 821 822 823 825 826 827 827 829 830 831 831 832 832 832 832 833 833 834 834 835
747 756 764 762 754 743 730 730 730 726 730 731 729 730 733 733 726 718 718 722 722 722 721 724 729 731 735 738 743 747 749 753 756 760 760 761 761 762 765 767 770 772 775 778 781 784 787 790 792 795 798 802 804 805 806 806 808 809 810 810 811 812 812 814 814 815 817 817 818 818 818 819 819 820 820 820 821 821 822 823 825 826 827 828 829 830 831 831 832 832 832 833 833 834 834 835 836
751 755 761 757 744 731 722 727 727 727 735 733 730 731 732 733 728 722 726 727 722 726 727 729 738 740 742 744 747 750 750 753 755 757 758 758 759 760 763 766 769 771 774 778 781 783 784 786 787 789 794 799 803 804 804 805 807 809 810 811 812 813 814 815 815 817 817 817 818 818 819 819 820 820 820 821 821 821 822 824 825 826 827 828 829 830 830 831 832 832 833 833 834 834 835 836 836
749 752 759 749 733 728 723 725 726 727 732 733 733 731 733 731 724 724 729 729 724 726 725 731 745 747 750 751 749 751 751 752 753 754 757 757 758 759 761 764 767 771 775 777 779 781 783 784 784 786 789 793 796 799 802 805 807 809 811 812 813 814 815 816 817 818 818 818 819 819 819 820 820 820 821 821 821 822 823 824 825 826 827 828 829 830 830 831 832 833 833 834 834 835 836 836 837
746 748 753 739 726 731 727 724 727 729 730 734 736 733 735 728 723 727 730 734 731 725 718 723 742 747 749 751 748 751 750 750 752 754 756 756 758 759 761 764 767 771 774 776 777 779 782 784 785 787 790 792 794 797 801 804 806 809 811 813 815 815 817 817 818 819 819 819 819 819 819 820 820 821 821 822 822 823 823 824 825 826 827 828 829 829 830 831 831 832 833 834 834 835 836 837 838
744 743 742 733 728 734 729 725 729 731 732 735 736 736 734 726 727 731 731 736 732 726 723 725 737 742 744 748 748 750 749 750 752 754 755 756 757 759 761 764 767 771 773 775 776 778 781 784 785 787 790 793 794 795 798 802 806 807 808 811 815 817 818 819 820 820 820 820 819 819 819 820 820 821 822 822 823 823 824 825 825 826 827 828 828 829 830 831 831 832 833 834 834 835 836 837 838
746 743 735 732 730 733 729 727 730 732 735 738 736 733 729 731 735 729 728 731 724 723 728 730 734 736 740 745 747 750 749 750 751 752 755 756 757 759 761 763 766 769 771 773 776 777 780 783 785 786 788 792 794 795 797 800 804 805 805 808 812 815 818 820 822 821 820 820 819 819 819 820 820 821 822 823 823 824 825 825 826 827 827 828 828 829 831 831 832 832 833 834 834 836 836 838 838
744 744 736 731 728 730 728 727 730 732 737 736 732 732 733 739 739 729 727 725 719 722 725 728 733 734 739 743 746 749 749 750 752 754 755 756 757 758 760 762 765 767 770 773 776 777 780 781 784 785 787 791 794 795 796 798 801 803 806 808 809 811 816 821 823 823 822 821 820 820 820 820 820 822 823 824 825 825 826 826 826 827 828 829 829 830 831 832 832 833 834 834 835 836 836 837 838
742 743 736 731 728 728 727 728 731 733 735 733 732 736 737 736 734 730 729 723 719 723 726 729 733 735 740 744 747 749 749 751 753 754 756 756 757 758 760 761 764 767 769 772 775 778 779 781 783 786 788 790 793 795 795 797 799 802 805 807 807 811 816 822 824 823 823 822 821 820 820 820 821 822 823 824 826 826 827 827 827 828 829 830 830 831 832 832 833 833 834 834 835 836 836 837 838
737 737 734 732 731 728 727 729 731 732 732 731 735 739 735 730 731 734 729 722 720 723 729 733 735 738 740 744 747 748 750 750 751 753 754 755 757 757 759 760 763 766 769 772 774 777 779 780 783 787 789 790 793 794 795 795 797 800 803 806 807 810 815 820 824 823 822 822 821 821 820 820 821 823 824 825 825 826 826 827 828 829 830 830 831 831 832 832 833 833 833 834 835 835 836 837 838
731 733 732 731 732 727 727 729 729 731 730 730 736 739 733 726 731 738 727 716 719 726 732 734 736 740 741 744 746 747 749 749 750 752 753 754 756 757 758 760 763 766 769 772 774 777 780 783 784 786 789 790 792 793 794 795 796 800 803 806 808 809 812 818 822 822 821 821 820 820 820 820 822 823 824 824 825 826 826 828 829 829 830 830 831 832 832 832 833 833 833 834 835 835 836 837 837
729 732 734 733 732 730 729 730 729 731 732 730 732 736 733 728 732 735 723 712 715 726 734 736 737 739 741 743 745 746 748 748 750 751 752 754 754 756 758 760 763 766 770 773 776 779 782 785 786 786 788 789 791 792 793 795 797 799 802 805 807 807 810 815 819 820 820 820 820 819 819 820 821 822 824 825 826 828 828 830 830 829 830 830 831 832 832 833 833 833 833 834 835 835 836 837 837
731 732 741 740 734 735 731 729 729 731 734 726 728 740 739 734 734 727 716 710 712 722 730 734 738 739 741 744 746 748 748 748 750 750 751 753 754 756 757 760 763 767 771 774 775 777 779 783 785 786 787 789 791 792 793 795 797 799 800 802 803 805 808 812 816 818 819 819 819 819 819 819 821 822 823 826 829 830 832 832 830 829 830 831 832 832 833 833 833 833 834 834 835 836 836 837 838
735 734 742 744 742 738 727 724 727 729 731 721 729 752 748 733 728 721 713 709 713 723 727 733 741 743 744 745 748 750 748 748 749 750 751 753 755 756 757 760 763 768 772 774 773 774 776 779 782 784 787 790 791 793 795 796 797 798 799 799 800 802 804 809 813 816 818 819 819 820 819 820 821 822 825 828 829 831 834 833 830 831 831 831 832 833 833 834 834 834 834 835 835 836 837 838 839
738 740 742 744 750 741 719 717 725 730 727 717 733 757 749 730 721 716 711 709 714 724 730 735 744 749 750 750 751 752 749 747 747 749 751 753 754 756 758 760 764 768 772 773 772 773 776 777 780 783 786 790 792 794 795 796 797 797 797 798 800 802 804 808 811 814 817 819 820 820 820 820 822 825 828 829 829 832 834 832 830 831 831 831 832 833 833 833 834 834 835 835 836 837 837 838 839
739 748 750 744 746 737 715 711 721 729 724 717 735 754 745 728 716 709 706 707 712 724 733 738 743 747 753 756 755 759 759 751 747 749 751 752 754 755 757 760 764 767 768 769 769 770 773 775 778 781 785 789 791 793 794 795 796 796 797 798 801 803 805 808 810 813 817 819 820 821 822 821 824 827 828 830 832 833 834 832 830 830 830 832 832 833 833 834 834 834 835 835 836 837 837 838 839
738 746 751 741 738 734 721 715 716 720 723 724 736 746 740 723 709 700 699 705 712 722 732 737 742 746 751 756 758 766 772 762 751 749 751 751 753 754 756 758 763 765 766 766 766 768 771 774 778 781 785 788 790 792 794 795 796 797 798 799 802 804 806 808 809 813 816 818 820 821 823 823 826 829 828 830 834 833 832 831 829 830 830 831 832 832 833 833 834 834 834 835 836 837 838 839 840
741 741 744 737 731 729 725 724 717 714 723 730 733 738 735 721 707 698 697 706 713 720 729 734 739 745 748 752 758 767 774 767 756 750 750 751 751 754 755 757 761 763 765 765 766 769 772 775 778 781 785 788 790 792 794 796 797 798 799 801 803 805 807 809 809 812 815 817 820 821 823 824 826 828 828 830 833 831 829 829 828 829 830 831 831 832 832 833 833 834 834 835 836 836 838 839 839
739 738 741 739 730 725 725 726 720 717 727 733 734 736 732 720 712 705 702 709 715 718 726 731 734 739 742 746 752 759 763 760 754 749 750 751 751 753 755 756 759 762 764 765 767 769 772 775 777 780 784 787 790 791 793 795 797 799 801 803 805 807 808 809 811 813 814 817 819 820 821 823 825 827 828 830 830 828 827 828 828 828 829 830 831 831 832 832 832 833 834 835 836 836 838 839 839
728 725 728 734 733 727 721 721 719 718 729 735 734 735 730 722 717 710 706 710 716 720 725 730 731 734 738 741 747 751 754 753 750 749 750 750 751 752 753 754 757 760 763 765 767 769 771 773 777 780 782 785 788 790 792 795 796 799 801 804 807 809 809 809 811 813 814 816 818 818 820 822 824 825 827 828 827 825 825 826 827 828 829 829 830 831 831 831 832 833 833 834 836 837 838 838 839
722 719 721 725 729 727 717 718 718 716 730 736 731 733 730 725 720 712 708 709 714 719 727 731 731 734 736 739 744 747 750 750 748 749 750 751 750 749 751 752 754 758 761 763 766 768 770 772 775 778 780 783 786 788 791 793 795 798 801 805 808 810 810 810 812 814 815 816 817 818 819 822 823 823 825 827 825 823 824 825 826 828 828 829 830 830 830 831 831 832 833 834 835 837 838 839 840
727 729 729 726 725 723 714 715 714 711 730 739 732 734 732 726 722 715 711 712 712 713 724 731 730 731 733 736 742 745 748 750 749 749 751 752 749 747 749 750 752 754 758 761 763 766 769 771 773 775 779 782 784 787 790 793 795 797 800 804 807 809 810 811 813 814 815 817 817 817 818 821 822 821 823 826 824 823 823 825 826 827 828 829 829 829 829 830 831 832 833 834 835 836 837 838 840
733 736 737 735 728 724 719 714 710 712 728 738 735 736 734 725 721 718 714 713 710 706 713 725 728 729 730 734 740 743 746 750 751 749 749 750 747 746 748 749 750 752 755 759 762 764 767 769 771 775 779 782 785 788 790 793 794 796 800 803 805 807 809 811 813 814 815 816 817 817 817 819 819 819 822 825 824 822 823 824 825 826 827 828 828 828 829 829 830 831 832 834 835 836 837 838 839
737 740 742 741 732 731 731 721 715 716 722 730 736 738 735 726 720 718 714 711 710 705 703 712 720 723 725 729 735 738 741 746 749 747 746 747 745 743 745 747 749 751 754 758 760 763 767 770 773 777 781 785 787 789 791 792 794 796 799 801 804 806 807 809 811 813 814 816 816 816 816 817 817 818 822 824 823 822 823 823 824 825 826 827 827 828 829 829 830 831 832 833 834 835 837 838 839
740 740 741 739 732 731 730 722 718 719 723 727 738 748 742 732 728 723 714 710 711 709 704 705 711 713 716 722 729 732 735 739 742 743 742 743 742 741 743 746 749 752 754 757 760 764 768 773 776 780 783 785 788 790 791 792 794 796 798 801 803 805 805 806 809 812 813 814 814 814 815 816 817 818 821 822 822 822 822 822 823 824 825 826 826 827 828 829 830 831 832 833 834 835 836 838 839
744 737 735 735 732 729 726 723 724 731 736 730 736 761 756 732 729 727 717 714 713 711 709 707 708 708 709 719 727 730 732 734 735 737 738 739 740 740 742 745 749 753 756 760 763 766 770 775 779 782 785 787 789 790 790 791 792 794 796 798 800 802 802 804 807 810 811 812 813 813 814 815 816 818 820 821 821 821 821 822 823 824 825 825 826 827 828 829 830 831 832 834 835 835 836 837 839
748 734 726 729 731 732 731 730 734 739 741 728 727 753 756 734 725 721 714 715 713 710 710 708 708 707 707 714 723 726 728 730 731 733 734 735 737 739 743 748 754 758 762 765 768 771 775 778 780 783 786 787 788 787 787 788 788 791 794 796 797 799 800 803 806 808 810 811 811 812 812 813 816 818 819 820 820 820 821 822 822 823 824 825 826 826 827 829 830 831 832 834 835 835 836 837 838
746 727 721 726 727 731 730 730 738 738 736 733 725 734 748 743 729 716 710 712 711 709 709 707 707 708 706 709 716 719 721 724 726 729 731 732 736 741 748 755 761 765 768 770 773 776 779 780 781 783 785 787 787 786 786 786 787 789 793 796 797 798 799 802 805 807 808 809 809 810 811 813 815 816 818 818 819 820 821 822 822 823 824 825 825 826 827 828 829 831 832 833 835 835 836 837 838
735 722 720 720 719 723 722 726 736 735 740 749 736 729 748 750 730 717 714 713 713 710 708 706 705 707 706 705 710 714 716 718 721 725 728 730 737 745 750 754 760 764 770 774 773 774 776 778 780 781 783 786 788 789 787 786 787 789 792 794 796 797 798 800 803 805 807 808 808 809 810 812 814 815 817 818 818 819 820 821 822 823 823 824 825 826 827 828 829 830 831 833 834 835 836 837 837
724 720 721 717 719 725 727 733 737 737 748 756 741 731 747 751 731 720 721 720 719 713 709 710 708 707 709 706 706 710 713 716 718 720 724 730 738 744 746 750 754 758 765 772 773 772 774 776 778 779 780 782 785 787 787 786 787 789 790 792 793 795 797 799 802 804 805 806 807 808 809 811 813 815 816 817 818 819 820 821 822 822 823 823 824 825 827 828 829 830 831 832 833 834 835 836 837
719 722 724 725 728 732 737 737 736 748 757 749 736 730 741 752 737 721 724 726 724 720 716 718 716 713 714 712 709 711 714 718 720 722 727 736 740 742 745 748 751 754 758 764 771 774 774 774 774 774 774 777 781 783 783 785 786 787 789 790 791 793 795 798 800 802 803 805 806 807 809 810 812 814 815 816 817 818 820 821 821 822 822 823 824 825 826 827 828 830 831 832 833 834 835 836 837
722 727 730 739 742 742 747 743 744 764 766 743 729 723 733 751 741 722 721 721 721 725 724 724 723 721 720 719 717 716 718 721 723 726 735 744 746 747 749 751 753 757 757 759 766 771 770 769 767 766 763 765 772 777 777 780 783 785 787 788 790 792 794 796 798 800 802 803 805 807 808 810 811 813 814 815 817 818 820 820 821 821 821 822 824 825 826 827 829 830 831 832 833 834 835 836 837
727 730 737 754 758 756 761 759 755 763 756 736 725 724 734 743 737 729 725 721 722 725 726 727 727 727 727 725 723 721 722 725 726 730 740 750 753 754 755 757 759 760 758 758 762 764 763 763 763 762 758 755 757 763 768 773 778 781 784 786 788 790 792 794 796 798 800 802 805 806 807 809 811 812 814 815 817 818 819 820 820 820 821 822 824 825 826 827 828 830 831 831 832 833 835 836 837
730 733 740 757 764 768 773 767 762 759 748 731 721 729 740 739 737 736 731 729 729 727 727 728 728 730 733 733 732 731 731 735 738 741 747 752 754 755 756 759 762 761 758 757 757 758 759 761 762 761 760 756 753 754 761 769 774 778 782 785 786 788 789 792 794 797 799 801 804 806 807 809 810 812 813 815 816 818 818 819 820 820 821 822 824 825 826 827 828 829 830 831 832 834 834 835 836
726 725 730 744 750 759 767 764 763 761 751 740 733 737 742 743 744 737 730 731 731 731 733 732 732 733 735 739 742 742 742 745 750 754 756 755 753 754 754 755 759 763 762 758 757 757 758 761 762 760 760 761 760 758 761 767 772 776 780 783 785 786 787 790 792 795 798 800 803 805 807 808 810 812 813 814 815 817 817 818 819 820 821 822 824 825 826 827 828 829 830 831 832 833 834 835 836
721 717 727 738 732 735 749 752 750 753 758 755 746 741 737 741 744 735 732 735 733 736 739 737 739 739 738 744 747 747 747 749 753 758 761 762 758 754 753 752 757 766 767 762 759 760 759 761 762 761 760 763 765 765 765 767 771 775 779 781 783 784 786 788 791 794 797 799 802 804 806 808 810 811 812 813 815 816 817 818 819 820 821 823 824 825 826 827 828 829 830 831 832 833 834 835 836
718 720 729 726 715 720 740 749 743 749 767 760 743 743 745 747 749 741 740 743 740 742 744 744 745 743 745 751 751 751 751 750 753 755 759 764 763 759 756 755 758 766 767 763 761 762 763 763 764 764 764 765 767 768 768 768 771 774 778 780 782 784 785 788 790 793 796 798 801 803 806 807 809 810 812 813 814 815 817 818 819 821 822 823 824 825 826 827 828 829 830 831 832 833 834 835 836
719 727 723 713 712 717 730 749 753 757 769 758 739 744 754 758 761 755 750 750 749 749 750 750 750 750 753 756 756 755 753 752 754 755 757 761 763 762 762 762 762 765 766 764 763 764 766 767 768 768 768 769 770 770 770 770 772 774 777 779 781 784 786 788 790 792 794 797 801 803 805 807 808 810 811 812 814 815 816 818 819 821 823 823 824 825 826 828 829 830 830 831 832 833 833 834 836
712 718 711 713 730 734 732 746 759 763 768 760 743 740 753 764 765 764 763 761 760 760 759 757 756 757 759 759 759 758 757 756 755 755 757 758 759 762 766 769 767 766 766 765 765 765 767 769 770 771 772 772 773 773 773 773 773 775 778 779 781 783 786 789 790 792 794 797 800 802 804 806 808 809 811 812 814 815 817 818 819 822 823 824 824 825 827 828 829 830 831 832 832 833 834 834 835
708 711 709 711 724 731 732 737 746 754 762 763 752 750 766 774 766 766 771 767 767 769 767 765 763 763 763 763 763 763 763 762 759 758 760 761 762 765 769 772 771 769 768 766 765 765 765 766 767 770 772 773 775 776 776 776 776 777 778 780 781 783 786 789 790 792 794 797 800 802 804 806 807 809 811 812 814 815 817 818 820 822 823 823 824 825 827 828 829 830 831 832 833 833 834 834 835
716 720 721 719 717 719 728 733 734 742 757 763 761 767 778 773 762 767 772 768 768 769 767 769 768 766 766 767 767 767 768 767 763 764 766 767 768 770 771 771 771 772 771 767 766 765 764 764 764 765 767 770 773 776 777 778 779 780 780 780 782 783 786 788 789 791 794 796 799 801 803 805 807 809 811 813 814 815 817 819 821 822 822 823 824 825 827 828 829 830 831 832 833 834 834 834 835
711 718 720 720 719 721 736 746 740 742 753 755 758 775 783 769 759 765 770 770 769 767 768 771 771 769 768 768 769 769 769 768 766 766 769 771 771 771 773 772 771 772 770 767 766 766 766 766 765 765 766 767 770 774 778 780 781 781 780 781 783 784 786 787 789 791 794 796 798 800 803 805 807 810 811 813 814 815 817 819 820 821 822 823 825 826 827 828 829 831 831 833 833 833 834 835 836